Weather observations for the past three days for
Fletcher Field, Clarksdale
Metric (Imperial)
Date Time (cdt) Wind (kph) Vis. (km) Weather Sky Cond. Temperature (ºC) Relative Humidity Wind Chill (°C) Heat Index (°C) Pressure Precipitation (cm)
Air Dwpt 6 hour altimeter (cm) sea level (mb) 1 hr 3 hr 6 hr
Max. Min.
10 08:35 Calm 16.09 NULL NULL 0 0 0% 76.25 0.0
10 08:15 Calm 16.09 NULL NULL 0 0 0% 76.23 0.0
10 07:55 Calm 16.09 NULL NULL 0 0 0% 76.25 0.0
10 07:35 Calm 16.09 NULL NULL 0 0 0% 76.23 0.0
10 07:15 Calm 14.48 NULL NULL 0 0 0% 76.2 0.0
10 06:55 Calm 14.48 NULL NULL 0 0 0% 76.2 0.0
10 06:35 Calm 11.27 NULL NULL 0 0 0% 76.23 0.0
10 06:15 Calm 11.27 NULL NULL 0 0 0% 76.17 0.0
10 05:55 Calm 11.27 NULL NULL 0 0 0% 76.17 0.0
10 05:35 Calm 6.44 Haze NULL 0 0 0% 76.15 0.0
10 05:15 Calm 9.66 Haze NULL 0 0 0% 76.15 0.0
10 04:55 Calm 16.09 NULL NULL 0 0 0% 76.1 0.0
10 04:35 Calm 16.09 NULL NULL 0 0 0% 76.07 0.0
10 04:15 Calm 16.09 NULL NULL 0 0 0% 76.05 0.0
10 03:55 Calm 16.09 NULL NULL 0 0 0% 76.02 0.0
10 03:35 Calm 16.09 NULL NULL 0 0 0% 76.02 0.0
10 03:15 Calm 16.09 NULL NULL 0 0 0% 76.02 0.0
10 02:55 Calm 16.09 NULL NULL 0 0 0% 76.02 0.0
10 02:35 Calm 16.09 NULL NULL 0 0 0% 76.02 0.0
10 02:15 Calm 16.09 NULL NULL 0 0 0% 76.02 0.0
10 01:55 Calm 16.09 NULL NULL 0 0 0% 76.02 0.0
10 01:35 Calm 16.09 NULL NULL 0 0 0% 76 0.0
10 01:15 Calm 16.09 NULL NULL 0 0 0% 76 0.0
10 00:55 Calm 16.09 NULL NULL 0 0 0% 76 0.0
10 00:35 Calm 16.09 NULL NULL 0 0 0% 76 0.0
10 00:15 Calm 16.09 NULL NULL 0 0 0% 76.02 0.0
09 23:55 S 7 16.09 NULL NULL 0 0 0% 76.02 0.0
09 23:35 S 7 16.09 NULL NULL 0 0 0% 76 0.0
09 23:15 SE 7 16.09 NULL NULL 0 0 0% 76 0.0
09 22:55 SE 9 16.09 NULL NULL 0 0 0% 76 0.0
09 22:35 Calm 16.09 NULL NULL 0 0 0% 76 0.0
09 22:15 Calm 16.09 NULL NULL 0 0 0% 76 0.0
09 21:55 S 6 16.09 NULL NULL 0 0 0% 76 0.0
09 21:35 S 9 16.09 NULL NULL 0 0 0% 75.97 0.0
09 21:15 Calm 16.09 NULL NULL 0 0 0% 75.95 0.0
09 20:55 Calm 16.09 NULL NULL 0 0 0% 75.92 0.0
09 20:35 Calm 16.09 NULL NULL 0 0 0% 75.92 0.0
09 20:15 Calm 16.09 NULL NULL 0 0 0% 75.9 0.0
09 19:55 S 6 16.09 NULL NULL 0 0 0% 75.87 0.0
09 19:35 Calm 16.09 NULL NULL 0 0 0% 75.84 0.0
09 19:15 S 11 16.09 NULL NULL 0 0 0% 75.82 0.0
09 18:55 S 13 16.09 NULL NULL 0 0 0% 75.79 0.0
09 18:35 S 17 16.09 NULL NULL 0 0 0% 75.79 0.0
09 18:15 Calm 16.09 NULL NULL 0 0 0% 75.79 0.0
09 17:55 SW 9 16.09 NULL NULL 0 0 0% 75.79 0.0
09 17:35 Calm 16.09 NULL NULL 0 0 0% 75.79 0.0
09 17:15 S 6 16.09 NULL NULL 0 0 0% 75.77 0.0
09 16:55 Calm 16.09 NULL NULL 0 0 0% 75.77 0.0
09 16:35 Calm 16.09 NULL NULL 0 0 0% 75.77 0.0
09 16:15 Calm 16.09 NULL NULL 0 0 0% 75.79 0.0
09 15:55 Calm 16.09 NULL NULL 0 0 0% 75.79 0.0
09 15:35 Calm 16.09 NULL NULL 0 0 0% 75.82 0.0
09 15:15 S 6 16.09 NULL NULL 0 0 0% 75.84 0.0
09 14:55 Calm 16.09 NULL NULL 0 0 0% 75.84 0.0
09 14:35 S 11 16.09 NULL NULL 0 0 0% 75.84 0.0
09 14:15 Vrbl 7 16.09 NULL NULL 0 0 0% 75.87 0.0
09 13:55 Vrbl 11 16.09 NULL NULL 0 0 0% 75.87 0.0
09 13:35 SE 15 16.09 NULL NULL 0 0 0% 75.9 0.0
09 13:15 NE 7 16.09 NULL NULL 0 0 0% 75.9 0.0
09 12:55 NE 7 16.09 NULL NULL 0 0 0% 75.9 0.0
09 12:35 E 7 16.09 NULL NULL 0 0 0% 75.9 0.0
09 12:15 Calm 16.09 NULL NULL 0 0 0% 75.92 0.0
09 11:55 Calm 14.48 NULL NULL 0 0 0% 75.92 0.0
09 11:35 E 7 16.09 NULL NULL 0 0 0% 75.92 0.0
09 11:15 Calm 16.09 NULL NULL 0 0 0% 75.92 0.0
09 10:55 Calm 16.09 NULL NULL 0 0 0% 75.92 0.0
09 10:35 Calm 16.09 NULL NULL 0 0 0% 75.9 0.0
09 10:15 SW 7 16.09 NULL NULL 0 0 0% 75.92 0.0
09 09:55 Vrbl 7 16.09 NULL NULL 0 0 0% 75.9 0.0
09 09:35 Calm 16.09 NULL NULL 0 0 0% 75.9 0.0
09 09:15 SW 9 16.09 NULL NULL 0 0 0% 75.9 0.0
09 08:55 S 7 16.09 NULL NULL 0 0 0% 75.9 0.0
09 08:35 SW 6 9.66 Haze NULL 0 0 0% 75.9 0.0
09 08:15 Calm 12.87 NULL NULL 0 0 0% 75.9 0.0
09 07:55 Calm 14.48 NULL NULL 0 0 0% 75.92 0.0
09 07:35 Calm 16.09 NULL NULL 0 0 0% 75.92 0.0
09 07:15 Calm 14.48 NULL NULL 0 0 0% 75.9 0.0
09 06:55 Calm 12.87 NULL NULL 0 0 0% 75.9 0.0
09 06:35 Calm 9.66 Haze NULL 0 0 0% 75.9 0.0
09 06:15 Calm 11.27 NULL NULL 0 0 0% 75.84 0.0
09 05:55 Calm 0.00 NULL NULL 0 0 0% 75.82 0.0
09 05:35 Calm 16.09 NULL NULL 0 0 0% 75.82 0.0
09 05:15 N 6 16.09 NULL NULL 0 0 0% 75.82 0.0
09 04:55 N 9 16.09 NULL NULL 0 0 0% 75.77 0.0
09 04:35 Calm 16.09 NULL NULL 0 0 0% 75.77 0.0
09 04:15 Calm 16.09 NULL NULL 0 0 0% 75.79 0.0
09 03:55 Calm 16.09 NULL NULL 0 0 0% 75.77 0.0
09 03:35 Calm 16.09 NULL NULL 0 0 0% 75.77 0.0
09 03:15 S 6 16.09 NULL NULL 0 0 0% 75.74 0.0
09 02:55 S 13 16.09 NULL NULL 0 0 0% 75.72 0.0
09 02:35 SE 11 16.09 NULL NULL 0 0 0% 75.74 0.0
09 02:15 S 13 16.09 NULL NULL 0 0 0% 75.74 0.0
09 01:55 S 13 16.09 NULL NULL 0 0 0% 75.77 0.0
09 01:35 SE 11 16.09 NULL NULL 0 0 0% 75.79 0.0
09 01:15 S 9 16.09 NULL NULL 0 0 0% 75.84 0.0
09 00:55 Calm 16.09 NULL NULL 0 0 0% 75.87 0.0
09 00:35 Calm 16.09 NULL NULL 0 0 0% 75.9 0.0
09 00:15 Calm 16.09 NULL NULL 0 0 0% 75.92 0.0
08 23:55 Calm 16.09 NULL NULL 0 0 0% 75.9 0.0
08 23:35 Calm 16.09 NULL NULL 0 0 0% 75.9 0.0
08 23:15 Calm 16.09 NULL NULL 0 0 0% 75.92 0.0
08 22:55 SE 9 16.09 NULL NULL 0 0 0% 75.9 0.0
08 22:35 SE 11 16.09 NULL NULL 0 0 0% 75.87 0.0
08 22:15 SE 11 16.09 NULL NULL 0 0 0% 75.87 0.0
08 21:55 SE 9 16.09 NULL NULL 0 0 0% 75.9 0.0
08 21:35 SE 7 16.09 NULL NULL 0 0 0% 75.87 0.0
08 21:15 Calm 16.09 NULL NULL 0 0 0% 75.87 0.0
08 20:55 SE 11 0.00 NULL NULL 0 0 0% 75.84 0.0
08 20:35 SE 13 16.09 NULL NULL 0 0 0% 75.87 0.0
08 20:15 SE 13 16.09 NULL NULL 0 0 0% 75.84 0.0
08 19:55 SE 17 16.09 NULL NULL 0 0 0% 75.84 0.0
08 19:35 SE 13 16.09 NULL NULL 0 0 0% 75.84 0.0
08 19:15 SE 17 16.09 NULL NULL 0 0 0% 75.82 0.0
08 18:55 S 13 G 22 16.09 NULL NULL 0 0 0% 75.84 0.0
08 18:35 S 19 16.09 NULL NULL 0 0 0% 75.82 0.0
08 18:15 S 20 16.09 NULL NULL 0 0 0% 75.84 0.0
08 17:55 S 17 16.09 NULL NULL 0 0 0% 75.87 0.0
08 17:35 S 19 16.09 NULL NULL 0 0 0% 75.87 0.0
08 17:15 S 19 G 35 16.09 NULL NULL 0 0 0% 75.87 0.0
08 16:55 SE 17 G 28 16.09 NULL NULL 0 0 0% 75.87 0.0
08 16:35 SE 19 16.09 NULL NULL 0 0 0% 75.87 0.0
08 16:15 SE 19 G 30 16.09 NULL NULL 0 0 0% 75.9 0.0
08 15:55 S 19 G 31 16.09 NULL NULL 0 0 0% 75.92 0.0
08 15:35 SE 22 G 31 16.09 NULL NULL 0 0 0% 75.92 0.0
08 15:15 SE 19 16.09 NULL NULL 0 0 0% 75.92 0.0
08 14:55 SE 11 G 24 16.09 NULL NULL 0 0 0% 75.95 0.0
08 14:35 SE 15 16.09 NULL NULL 0 0 0% 75.97 0.0
08 14:15 SE 19 16.09 NULL NULL 0 0 0% 76 0.0
08 13:55 SE 17 G 26 16.09 NULL NULL 0 0 0% 76 0.0
08 13:35 SE 17 16.09 NULL NULL 0 0 0% 76.02 0.0
08 13:15 E 13 16.09 NULL NULL 0 0 0% 76.05 0.0
08 12:55 SE 13 16.09 NULL NULL 0 0 0% 76.05 0.0
08 12:35 Vrbl 11 16.09 NULL NULL 0 0 0% 76.12 0.0
08 12:15 SE 11 G 22 16.09 NULL NULL 0 0 0% 76.15 0.0
08 11:55 SE 13 16.09 NULL NULL 0 0 0% 76.2 0.0
08 11:35 Calm 16.09 NULL NULL 0 0 0% 76.23 0.0
08 11:15 SE 9 16.09 NULL NULL 0 0 0% 76.23 0.0
08 10:35 E 17 16.09 NULL NULL 0 0 0% 76.23 0.0
08 10:15 SE 15 16.09 NULL NULL 0 0 0% 76.25 0.0
08 09:55 E 15 16.09 NULL NULL 0 0 0% 76.25 0.0
08 09:35 SE 13 16.09 NULL NULL 0 0 0% 76.28 0.0
08 09:15 SE 17 16.09 NULL NULL 0 0 0% 76.3 0.0
08 08:55 SE 13 16.09 NULL NULL 0 0 0% 76.3 0.0
08 08:35 SE 9 16.09 NULL NULL 0 0 0% 76.3 0.0
08 08:15 E 9 16.09 NULL NULL 0 0 0% 76.3 0.0
08 07:55 Calm 16.09 NULL NULL 0 0 0% 76.3 0.0
08 07:35 Calm 16.09 NULL NULL 0 0 0% 76.33 0.0
08 07:15 Calm 16.09 NULL NULL 0 0 0% 76.33 0.0
08 06:55 Calm 16.09 NULL NULL 0 0 0% 76.3 0.0
08 06:35 Calm 14.48 NULL NULL 0 0 0% 76.3 0.0
08 06:15 Calm 11.27 NULL NULL 0 0 0% 76.25 0.0
08 05:55 Calm 14.48 NULL NULL 0 0 0% 76.25 0.0
08 05:35 Calm 16.09 NULL NULL 0 0 0% 76.25 0.0
08 05:15 Calm 14.48 NULL NULL 0 0 0% 76.25 0.0
08 04:55 Calm 16.09 NULL NULL 0 0 0% 76.25 0.0
08 04:35 Calm 16.09 NULL NULL 0 0 0% 76.25 0.0
08 04:15 N 6 14.48 NULL NULL 0 0 0% 76.23 0.0
08 03:55 Calm 2.82 Fog/Mist NULL 0 0 0% 76.23 0.0
08 03:35 Calm 9.66 Haze NULL 0 0 0% 76.23 0.0
08 03:15 Calm 9.66 Haze NULL 0 0 0% 76.23 0.0
08 02:55 Calm 14.48 NULL NULL 0 0 0% 76.23 0.0
08 02:35 Calm 14.48 NULL NULL 0 0 0% 76.23 0.0
08 02:15 Calm 16.09 NULL NULL 0 0 0% 76.23 0.0
08 01:55 Calm 12.87 NULL NULL 0 0 0% 76.23 0.0
08 01:35 Calm 16.09 NULL NULL 0 0 0% 76.25 0.0
08 01:15 Calm 16.09 NULL NULL 0 0 0% 76.25 0.0
08 00:55 Calm 16.09 NULL NULL 0 0 0% 76.25 0.0
08 00:35 Calm 16.09 NULL NULL 0 0 0% 76.28 0.0
08 00:15 Calm 16.09 NULL NULL 0 0 0% 76.28 0.0
07 23:55 Calm 16.09 NULL NULL 0 0 0% 76.25 0.0
07 23:35 Calm 16.09 NULL NULL 0 0 0% 76.25 0.0
07 23:15 Calm 14.48 NULL NULL 0 0 0% 76.25 0.0
07 22:55 Calm 16.09 NULL NULL 0 0 0% 76.3 0.0
07 22:35 Calm 16.09 NULL NULL 0 0 0% 76.28 0.0
07 22:15 Calm 16.09 NULL NULL 0 0 0% 76.3 0.0
07 21:55 Calm 16.09 NULL NULL 0 0 0% 76.3 0.0
07 21:35 Calm 16.09 NULL NULL 0 0 0% 76.28 0.0
07 21:15 Calm 16.09 NULL NULL 0 0 0% 76.25 0.0
07 20:55 Calm 16.09 NULL NULL 0 0 0% 76.25 0.0
07 20:35 Calm 16.09 NULL NULL 0 0 0% 76.23 0.0
07 20:15 Calm 16.09 NULL NULL 0 0 0% 76.23 0.0
07 19:55 Calm 16.09 NULL NULL 0 0 0% 76.2 0.0
07 19:35 N 9 16.09 NULL NULL 0 0 0% 76.2 0.0
07 19:15 Calm 16.09 NULL NULL 0 0 0% 76.2 0.0
07 18:55 Calm 16.09 NULL NULL 0 0 0% 76.2 0.0
07 18:35 N 6 16.09 NULL NULL 0 0 0% 76.2 0.0
07 18:15 NW 7 16.09 NULL NULL 0 0 0% 76.23 0.0
07 17:55 Calm 16.09 NULL NULL 0 0 0% 76.23 0.0
07 17:35 N 9 16.09 NULL NULL 0 0 0% 76.23 0.0
07 17:15 Calm 16.09 NULL NULL 0 0 0% 76.2 0.0
07 16:55 N 9 G 19 16.09 NULL NULL 0 0 0% 76.2 0.0
07 16:35 N 9 16.09 NULL NULL 0 0 0% 76.2 0.0
07 16:15 N 11 16.09 NULL NULL 0 0 0% 76.23 0.0
07 15:15 Vrbl 7 G 19 16.09 NULL NULL 0 0 0% 76.23 0.0
07 14:55 NW 9 G 20 16.09 NULL NULL 0 0 0% 76.25 0.0
07 14:35 NW 7 G 19 16.09 NULL NULL 0 0 0% 76.28 0.0
07 14:15 NW 13 16.09 NULL NULL 0 0 0% 76.3 0.0
07 13:55 Vrbl 11 16.09 NULL NULL 0 0 0% 76.3 0.0
07 13:35 NE 9 G 26 16.09 NULL NULL 0 0 0% 76.3 0.0
07 13:15 N 20 16.09 NULL NULL 0 0 0% 76.33 0.0
07 12:55 NW 15 16.09 NULL NULL 0 0 0% 76.33 0.0
07 12:35 N 15 G 30 16.09 NULL NULL 0 0 0% 76.33 0.0
07 12:15 N 15 G 28 16.09 NULL NULL 0 0 0% 76.35 0.0
07 11:55 N 15 G 26 16.09 NULL NULL 0 0 0% 76.35 0.0
07 11:35 N 17 G 30 16.09 NULL NULL 0 0 0% 76.35 0.0
07 11:15 N 17 16.09 NULL NULL 0 0 0% 76.38 0.0
07 10:55 N 17 G 26 16.09 NULL NULL 0 0 0% 76.4 0.0
07 10:35 N 17 G 28 16.09 NULL NULL 0 0 0% 76.38 0.0
07 10:15 N 13 G 24 16.09 NULL NULL 0 0 0% 76.38 0.0
07 09:55 N 20 16.09 NULL NULL 0 0 0% 76.38 0.0
07 09:35 N 19 G 30 16.09 NULL NULL 0 0 0% 76.4 0.0
07 09:15 N 20 16.09 NULL NULL 0 0 0% 76.4 0.0
07 08:55 N 19 16.09 NULL NULL 0 0 0% 76.38 0.0
Date Time (cdt) Wind (kph) Vis. (km) Weather Sky Cond. Air Dwpt Max. Min. Relative Humidity Wind Chill (°C) Heat Index (°C) altimeter (cm) sea level (mb) 1 hr 3 hr 6 hr
6 hour
Temperature (ºC) Pressure Precipitation (cm)